Location: Newark
(22.3060°N, 114.2134°E)
Time: 06:01:37
(UTC+00:00)

Envisat - Visible Passes

Search period start: 24 June 2021 00:00
Search period end: 04 July 2021 00:00
Orbit: 764 x 766 km, 98.1° (Epoch: 23 June)

Date Brightness Start Highest point End Pass type
(mag) Time Alt. Az. Time Alt. Az. Time Alt. Az.
25 Jun 4.3 21:10:01 10° NNE 21:14:50 43° E 21:19:39 10° S visible
26 Jun 5.6 20:34:47 10° ENE 20:37:56 16° E 20:41:04 10° SE visible
28 Jun 4.8 20:58:50 10° NE 21:03:22 32° E 21:07:52 10° SSE visible
29 Jun 5.8 20:24:32 10° ENE 20:26:24 12° E 20:28:17 10° ESE visible
01 Jul 5.2 20:47:47 10° NE 20:51:52 24° E 20:55:55 10° SSE visible
03 Jul 4.1 21:12:22 10° NNE 21:17:16 48° E 21:22:08 10° S visible
